Weather History for KMTV - August, 2013

Change the Weather History Date:

Friday, August 16, 2013

  Actual Average (KGSO) Record (KGSO)
Temperature  
Mean Temperature 62 °F 77 °F  
Max Temperature 73 °F 87 °F 99 °F (2007)
Min Temperature 50 °F 68 °F 52 °F (1979)
Degree Days  
Heating Degree Days 4 0  
Month to date heating degree days 0  
Since 1 June heating degree days 6  
Since 1 July heating degree days 0  
Cooling Degree Days 0 12  
Month to date cooling degree days 207  
Year to date cooling degree days 1092  
Since 1 June cooling degree days 933  
Growing Degree Days 12 (Base 50)    
Moisture  
Dew Point 56 °F    
Average Humidity 84    
Maximum Humidity 99    
Minimum Humidity 59    
Precipitation  
Precipitation 0.00 in 0.11 in 2.31 in (1928)
Month to date precipitation 1.96  
Year to date precipitation 26.87  
Sea Level Pressure  
Sea Level Pressure 30.20 in    
Wind  
Wind Speed 0 mph (East)    
Max Wind Speed 8 mph    
Max Gust Speed -    
Visibility 8 miles    
Events      
T = Trace of Precipitation, MM = Missing Value Source: NWS Daily Summary

Daily Weather History Graph

Daily Weather History Graph

Search for Another Location

Airport or City:

Trip Planner

Search our weather history database for the weather conditions in past years. The results will help you decide how hot, cold, wet, or windy it might be!

Date:

Astronomy

Aug. 16, 2013 Rise Set
Actual Time 6:38 AM EDT 8:09 PM EDT
Civil Twilight 6:11 AM EDT 8:36 PM EDT
Nautical Twilight 5:38 AM EDT 9:09 PM EDT
Astronomical Twilight 5:03 AM EDT 9:44 PM EDT
Moon 4:23 PM EDT (8/16) 1:42 AM EDT (8/16)
Length of Visible Light 14h 25m
Length of Day
13h 30m
Waxing Gibbous, 74% of the Moon is Illuminated
Aug 16
Waxing Gibbous
Aug 20
Full
Aug 28
Last Quarter
Sep 5
New
Sep 12
First Quarter

Hourly Weather History & Observations

Time (EDT) Temp. Dew Point Humidity Pressure Visibility Wind Dir Wind Speed Gust Speed Precip Events Conditions
12:15 AM 54.1 °F 53.4 °F 97% 30.20 in 7.0 mi Calm Calm - N/A   Clear
12:35 AM 54.0 °F 53.1 °F 97% 30.20 in 7.0 mi Calm Calm - N/A   Clear
12:55 AM 53.6 °F 52.9 °F 97% 30.20 in 5.0 mi Calm Calm - N/A   Clear
1:15 AM 52.9 °F 52.2 °F 97% 30.20 in 5.0 mi Calm Calm - N/A   Clear
1:55 AM 52.3 °F 51.6 °F 97% 30.19 in 7.0 mi Calm Calm - N/A   Clear
2:15 AM 52.2 °F 51.4 °F 97% 30.18 in 5.0 mi Calm Calm - N/A   Clear
2:35 AM 52.0 °F 51.4 °F 98% 30.18 in 1.0 mi Calm Calm - N/A   Mist
2:55 AM 52.0 °F 51.4 °F 98% 30.17 in 5.0 mi Calm Calm - N/A   Clear
3:15 AM 52.2 °F 51.8 °F 99% 30.17 in 7.0 mi Calm Calm - N/A   Clear
3:35 AM 52.0 °F 51.3 °F 97% 30.17 in 5.0 mi Calm Calm - N/A   Clear
3:55 AM 50.9 °F 50.4 °F 98% 30.17 in 5.0 mi Calm Calm - N/A   Clear
4:15 AM 50.9 °F 50.4 °F 98% 30.17 in 5.0 mi Calm Calm - N/A   Clear
4:35 AM 50.4 °F 49.8 °F 98% 30.17 in 4.0 mi Calm Calm - N/A   Clear
4:55 AM 50.5 °F 50.0 °F 98% 30.17 in 5.0 mi Calm Calm - N/A   Clear
5:15 AM 50.9 °F 50.2 °F 97% 30.18 in 7.0 mi Calm Calm - N/A   Clear
5:35 AM 50.4 °F 50.0 °F 99% 30.18 in 5.0 mi Calm Calm - N/A   Clear
5:55 AM 50.2 °F 49.6 °F 98% 30.18 in 5.0 mi Calm Calm - N/A   Clear
6:15 AM 50.0 °F 49.5 °F 98% 30.19 in 5.0 mi Calm Calm - N/A   Clear
6:35 AM 50.0 °F 49.5 °F 98% 30.19 in 4.0 mi Calm Calm - N/A   Clear
6:55 AM 50.4 °F 50.0 °F 99% 30.20 in 4.0 mi Calm Calm - N/A   Clear
7:15 AM 51.8 °F 51.3 °F 98% 30.21 in 3.0 mi Calm Calm - N/A   Clear
7:35 AM 53.6 °F 53.1 °F 98% 30.21 in 10.0 mi Calm Calm - N/A   Clear
7:55 AM 55.4 °F 54.5 °F 97% 30.21 in 10.0 mi Calm Calm - N/A   Clear
8:15 AM 57.0 °F 55.2 °F 94% 30.21 in 10.0 mi Calm Calm - N/A   Clear
8:35 AM 59.9 °F 57.0 °F 90% 30.21 in 10.0 mi Calm Calm - N/A   Clear
8:55 AM 61.3 °F 58.1 °F 89% 30.21 in 10.0 mi Calm Calm - N/A   Clear
9:15 AM 61.5 °F 58.5 °F 90% 30.22 in 10.0 mi Calm Calm - N/A   Clear
9:35 AM 62.6 °F 58.8 °F 87% 30.21 in 10.0 mi Calm Calm - N/A   Clear
9:55 AM 63.1 °F 59.4 °F 87% 30.21 in 10.0 mi North 3.5 mph - N/A   Clear
10:15 AM 64.6 °F 59.4 °F 83% 30.21 in 10.0 mi Calm Calm - N/A   Clear
10:35 AM 66.4 °F 59.5 °F 79% 30.22 in 10.0 mi Calm Calm - N/A   Clear
10:55 AM 68.0 °F 59.0 °F 73% 30.22 in 10.0 mi Calm Calm - N/A   Clear
11:15 AM 68.2 °F 59.0 °F 72% 30.22 in 10.0 mi Calm Calm - N/A   Clear
11:35 AM 68.9 °F 59.9 °F 73% 30.23 in 10.0 mi Calm Calm - N/A   Clear
11:55 AM 68.9 °F 59.7 °F 72% 30.22 in 10.0 mi Calm Calm - N/A   Clear
12:15 PM 70.9 °F 60.3 °F 69% 30.22 in 10.0 mi Calm Calm - N/A   Scattered Clouds
12:35 PM 72.9 °F 57.9 °F 59% 30.21 in 10.0 mi Calm Calm - N/A   Scattered Clouds
12:55 PM 71.6 °F 59.5 °F 66% 30.20 in 10.0 mi East 3.5 mph - N/A   Mostly Cloudy
1:15 PM 71.8 °F 57.4 °F 60% 30.20 in 10.0 mi Calm Calm - N/A   Mostly Cloudy
1:35 PM 72.9 °F 57.7 °F 59% 30.20 in 10.0 mi Calm Calm - N/A   Scattered Clouds
1:55 PM 72.1 °F 58.1 °F 61% 30.20 in 10.0 mi Calm Calm - N/A   Mostly Cloudy
2:15 PM 71.6 °F 58.5 °F 63% 30.20 in 10.0 mi Calm Calm - N/A   Mostly Cloudy
2:35 PM 71.4 °F 59.7 °F 66% 30.20 in 10.0 mi Calm Calm - N/A   Overcast
2:55 PM 71.6 °F 57.9 °F 62% 30.20 in 10.0 mi Calm Calm - N/A   Overcast
3:15 PM 71.6 °F 58.8 °F 64% 30.19 in 10.0 mi Calm Calm - N/A   Overcast
3:35 PM 72.1 °F 59.0 °F 63% 30.19 in 10.0 mi Calm Calm - N/A   Scattered Clouds
3:55 PM 71.1 °F 59.2 °F 66% 30.18 in 10.0 mi ESE 3.5 mph - N/A   Mostly Cloudy
4:15 PM 72.1 °F 59.2 °F 64% 30.18 in 10.0 mi Calm Calm - N/A   Scattered Clouds
4:35 PM 73.6 °F 59.5 °F 61% 30.17 in 10.0 mi Calm Calm - N/A   Scattered Clouds
4:55 PM 73.4 °F 59.0 °F 61% 30.18 in 10.0 mi Calm Calm - N/A   Mostly Cloudy
5:15 PM 73.9 °F 59.4 °F 60% 30.18 in 10.0 mi ESE 5.8 mph - N/A   Overcast
5:35 PM 73.0 °F 60.4 °F 65% 30.18 in 10.0 mi SE 3.5 mph - N/A   Mostly Cloudy
5:55 PM 73.4 °F 60.4 °F 64% 30.19 in 10.0 mi East 4.6 mph - N/A   Mostly Cloudy
6:15 PM 72.1 °F 59.4 °F 64% 30.19 in 10.0 mi East 4.6 mph - N/A   Scattered Clouds
6:35 PM 73.0 °F 59.4 °F 62% 30.18 in 10.0 mi ESE 8.1 mph - N/A   Scattered Clouds
6:55 PM 71.6 °F 59.0 °F 64% 30.18 in 10.0 mi ESE 4.6 mph - N/A   Mostly Cloudy
7:15 PM 70.7 °F 59.7 °F 68% 30.18 in 10.0 mi East 3.5 mph - N/A   Clear
7:35 PM 68.7 °F 59.9 °F 73% 30.18 in 10.0 mi Calm Calm - N/A   Clear
7:55 PM 64.9 °F 61.3 °F 88% 30.20 in 10.0 mi Calm Calm - N/A   Clear
8:15 PM 62.8 °F 60.4 °F 92% 30.20 in 10.0 mi Calm Calm - N/A   Clear
8:35 PM 61.7 °F 59.9 °F 94% 30.21 in 10.0 mi Calm Calm - N/A   Clear
8:55 PM 59.9 °F 58.6 °F 96% 30.21 in 10.0 mi Calm Calm - N/A   Clear
9:15 PM 59.2 °F 57.6 °F 94% 30.22 in 10.0 mi Calm Calm - N/A   Clear
9:35 PM 58.3 °F 57.4 °F 97% 30.23 in 7.0 mi Calm Calm - N/A   Clear
9:55 PM 58.1 °F 57.2 °F 97% 30.24 in 10.0 mi Calm Calm - N/A   Clear
10:15 PM 57.6 °F 56.5 °F 96% 30.24 in 10.0 mi Calm Calm - N/A   Clear
10:35 PM 56.7 °F 55.9 °F 97% 30.24 in 1.0 mi Calm Calm - N/A   Mist
10:55 PM 57.2 °F 56.5 °F 97% 30.23 in 10.0 mi Calm Calm - N/A   Clear
11:15 PM 56.3 °F 55.4 °F 97% 30.24 in 7.0 mi Calm Calm - N/A   Clear
11:35 PM 55.8 °F 55.0 °F 97% 30.24 in 7.0 mi Calm Calm - N/A   Clear
11:55 PM 55.4 °F 54.7 °F 97% 30.24 in 7.0 mi Calm Calm - N/A   Clear